GW1942 Weather Reports


time (UTC)temp
C
wind
direction
speed
KPH
gust
KPH
rain 1hr
cm
rain 24hr
cm
rain mn
cm
humidity
%
barometer
mb
20260504234538 20 49 8.0 16.1 0.00 0.00 0.00 33 1009.6
20260504233040 20 71 8.0 17.7 0.00 0.00 0.00 31 1009.6
20260504231540 21 116 11.3 19.3 0.00 0.00 0.00 30 1009.6
20260504230040 22 105 1.6 6.4 0.00 0.00 0.00 34 1009.7
20260504224539 21 44 3.2 9.7 0.00 0.00 0.00 30 1009.7
20260504223035 21 91 4.8 12.9 0.00 0.00 0.00 31 1009.8
20260504221535 21 76 8.0 14.5 0.00 0.00 0.00 30 1009.9
20260504220034 21 66 3.2 9.7 0.00 0.00 0.00 31 1010.0
20260504214532 21 198 3.2 8.0 0.00 0.00 0.00 35 1010.0
20260504213031 20 89 4.8 14.5 0.00 0.00 0.00 35 1010.0
20260504211528 21 210 3.2 14.5 0.00 0.00 0.00 34 1010.0
20260504210036 21 121 6.4 16.1 0.00 0.00 0.00 32 1010.0
20260504204532 20 122 1.6 16.1 0.00 0.00 0.00 36 1010.2
20260504203136 20 118 6.4 14.5 0.00 0.00 0.00 34 1010.3
20260504201522 20 117 6.4 14.5 0.00 0.00 0.00 31 1010.3
20260504200022 20 80 8.0 22.5 0.00 0.00 0.00 34 1010.4
20260504194624 20 255 1.6 17.7 0.00 0.00 0.00 34 1010.4
20260504193016 20 111 9.7 14.5 0.00 0.00 0.00 34 1010.7
20260504191514 20 265 3.2 19.3 0.00 0.00 0.00 34 1010.5
20260504190012 19 110 9.7 19.3 0.00 0.00 0.00 33 1010.8
20260504184511 18 134 4.8 17.7 0.00 0.00 0.00 35 1011.0
20260504183010 18 68 0.0 8.0 0.00 0.00 0.00 35 1011.2
20260504181508 18 290 1.6 8.0 0.00 0.00 0.00 35 1011.2
20260504180006 18 328 1.6 9.7 0.00 0.00 0.00 37 1011.4
20260504174502 17 325 0.0 6.4 0.00 0.00 0.00 40 1011.5
20260504173006 17 46 3.2 8.0 0.00 0.00 0.00 36 1011.5
20260504171609 17 335 3.2 8.0 0.00 0.00 0.00 38 1011.8
20260504081534 5 167 0.0 3.2 0.00 0.00 0.00 79 1008.8
20260504050108 10 160 0.0 3.2 0.00 0.00 0.00 66 1008.3
20260504044513 11 134 0.0 4.8 0.00 0.00 0.00 58 1008.3
20260504043012 11 208 0.0 4.8 0.00 0.00 0.00 63 1008.3
20260504041523 13 199 0.0 3.2 0.00 0.00 0.00 55 1008.1
20260504040006 15 101 3.2 12.9 0.00 0.00 0.00 45 1007.9
20260504034504 15 141 1.6 9.7 0.00 0.00 0.00 52 1007.8
20260504033003 16 165 3.2 14.5 0.00 0.00 0.00 45 1007.5
20260504031503 16 144 4.8 12.9 0.00 0.00 0.00 44 1007.4
20260504030002 17 69 0.0 12.9 0.00 0.00 0.00 43 1007.4
20260504024503 19 75 0.0 4.8 0.00 0.00 0.00 35 1007.3
20260504023002 21 212 0.0 3.2 0.00 0.00 0.00 30 1007.0
20260504021500 23 220 0.0 3.2 0.00 0.00 0.00 29 1006.9
20260504020132 25 218 0.0 3.2 0.00 0.00 0.00 25 1006.9
20260504014602 25 238 0.0 8.0 0.00 0.00 0.00 23 1007.1
20260504013121 25 237 1.6 6.4 0.00 0.00 0.00 21 1007.2
20260504011555 25 292 0.0 9.7 0.00 0.00 0.00 21 1007.4
20260504010055 26 238 1.6 12.9 0.00 0.00 0.00 19 1007.4
20260504004552 26 315 4.8 14.5 0.00 0.00 0.00 19 1007.5
20260504003051 26 308 3.2 19.3 0.00 0.00 0.00 18 1007.5
20260504001553 26 36 4.8 11.3 0.00 0.00 0.00 21 1007.7
20260504000049 26 56 3.2 12.9 0.00 0.00 0.00 20 1007.8